Погода в Тюмени

Погода в Тюмени : погода сейчас, прогноз погоды и архив. Всё, что Вы хотите узнать о погоде в Тюмени!

Хотите узнать прогноз погоды в Тюмени? Тогда Вам сюда: Погода в Тюмени

Поиск расширенной информации на нашем сайте:

Другие новости

Новости СМИ2

Главная страница сайта

Новости сайта

03.07.2017

Напоминаем, что на нашем специализированном сайте Метеоцентр.Азия вы можете получить высокодетализированные автоматические прогнозы погоды по пунктам России, СНГ и мира в авиационном формате (включающие направление и скорость ветра, видимость, явления погоды, количество и форму облачности, нижнюю и верхнюю границу облачности).


Погода в Тюмени - сегодня

Время (UTC), дата Ветер
(°,м/с) 
Видим.   Явления Облачность Т
(°С)
Тd
(°С)
f(%) Тe
(°С)
Pmin
(гПа)
dP
(гПа)
Po
(мм)
O2
(г/м3)
Тmin Tmax R s Состояние
почвы
15 09.12.17 010 (С) 50000 м    10/0 средняя 
[As op]
-8.7 -11.6 79 -8  1007.5  -0.3  746  312    -6.1       
18 09.12.17 080 (В) 50000 м    10/0 средняя 
[Ac As]
-7.9 -11.7 74 -8  1008  0.5  746  311           
21 09.12.17 100 (В) 9000 м  слаб. снег  10/0 средняя 
[As trans]
-8.9 -10.3 90 -9  1008.4  0.3  747  312           
00 10.12.17 360 (С) 50000 м  слаб. снег  10/0 средняя 
[As trans]
-8.8 -10.3 89 -9  1009.8  1.3  748  312           
03 10.12.17 350 (С) 50000 м  слаб. снег  10/0 средняя 
[As op]
-8.7 -10.1 90 -8  1012.1  2.3  749  313  -9    0.5  21  равномерный
сухой снег
100% 
06 10.12.17 320 (СЗ) 4000 м  {снег}  10/0 средняя, верхняя 
[As trans|Cs]
-8.7 -10.2 89 -8  1014.4  2.3  751  314  -9.1         
09 10.12.17 310 (СЗ) 4000 м    10/0 верхняя 
[Cs]
-8.3 -10.3 85 -8  1015.9  1.5  752  314           
12 10.12.17 300 (СЗ) 50000 м    10/0 верхняя 
[Cs]
-9.7 -11.3 88 -10  1018  754  316           
15 10.12.17 290 (З) 50000 м    10/0 верхняя 
[Cs]
-10.7 -12.4 87 -11  1019.7  1.6  755  318    -8.1  0.2     
18 10.12.17 300 (СЗ) 50000 м    8/0 верхняя 
[Cs]
-12.3 -13.7 89 -14  1020.9  1.1  756  320           
21 10.12.17 310 (СЗ) 50000 м    ясно 
-13.6 -14.8 91 -14  1022.1  1.1  756  322           
00 11.12.17 300 (СЗ) 50000 м  [диам. изморози 2 мм]  ясно 
-14.6 -15.9 90 -15  1023.5  1.3  757  324           
03 11.12.17 320 (СЗ) 50000 м  слаб. снег [диам. изморози 4 мм]  10/0 средняя 
[As op]
-13.5 -14.9 89 -13  1024.7  1.3  758  323  -15    0.0  21  равномерный
сухой снег
100% 
06 11.12.17 320 (СЗ) 4000 м  слаб. снег [диам. изморози 4 мм]  10/0 средняя 
[As op]
-11.9 -13.4 89 -14  1026.4  1.7  760  321           
09 11.12.17 310 (СЗ) 4000 м  слаб. снег [диам. изморози 1 мм]  10/0 средняя 
[As trans]
-11.1 -13 86 -13  1027.9  1.4  761  321           
12 11.12.17 340 (С) 50000 м  слаб. снег [диам. изморози 0 мм]  10/0 средняя 
[As trans]
-11.8 -13.7 86 -14  1029.7  1.7  762  322           
15 11.12.17 320 (СЗ) 50000 м  {снег}  4/0 средняя, верхняя 
[Ac trans|Ci fib]
-13.9 -15.3 89 -14  1031.8  1.9  764  326    -11  0.0     
18 11.12.17 340 (С) 50000 м  {снег}  10/0 средняя 
[As op]
-13.3 -14.9 88 -13  1033  1.2  765  325           
21 11.12.17 310 (СЗ) 50000 м    9/9 660 м 
[Sc]
-13.6 -15.3 87 -14  1033.3  0.3  765  326           
00 12.12.17 тихо ()   50000 м    3/0 верхняя 
[Ci fib]
-15.5 -17.1 88 -16  1034.6  1.2  766  329           
03 12.12.17 360 (С) 20000 м  слаб. снег  10/0 средняя 
[As trans]
-14.5 -16.1 88 -15  1036.2  1.6  767  328  -17    0.2  21  равномерный
сухой снег
100% 
06 12.12.17 тихо ()   4000 м  слаб. снег  10/0 верхняя 
[Cs]
-13.5 -15.3 86 -14  1037.1  0.9  768  327           
09 12.12.17 180 (Ю) 4000 м  {снег}  ясно 
-11.9 -14.8 79 -12  1037.5  0.5  768  325           
12 12.12.17 тихо ()   50000 м  {снег}  ясно 
-17 -18.3 90 -17  1038.7  769  332           
15 12.12.17 150 (ЮВ) 50000 м    9/0 средняя 
[Ac trans]
-15.9 -17.4 88 -16  1039.8  1.1  769  331    -11.5  0.0     
Время (UTC), дата Ветер
(°,м/с) 
Видим.   Явления Облачность Т
(°С)
Тd
(°С)
f(%) Тe
(°С)
Pmin
(гПа)
dP
(гПа)
Po
(мм)
O2
(г/м3)
Тmin Tmax R s Состояние
почвы

Для получения пояснительной информации подведите курсор к названию столбца.

ПОГОДА в Тюмени - архив

Всё, что Вы хотите узнать о погоде в Тюмени - удобно и подробно!

Выберите нужную дату (начиная с 1 января 2015* года) и нажмите кнопку "Найти".
Будут отображены архивные сводки погоды по пункту Тюмень, начиная с указанной даты.


Отображать данные в формате CSV (для использования в таблицах Excel)


Внимание! Наш архив погоды предназначен исключительно для личного некоммерческого использования в познавательных целях. Если Вам необходимы официальные справки о состоянии погоды (для производственных, юридических, коммерческих и т.п. целей), обращайтесь в органы Росгидромета.

*Примечание: данная дата относится к архиву по метеостанциям СССР (Россия, СНГ, Балтия).
Архив по метеостанциям Зарубежной Европы и Азии (кроме Китая) хранится 10 дней, по другим регионам земного шара (Китай, Африка, Америка, Австралия, Океания) - 1 день.

Тюмень - район местоположения метеостанции


Название, широта, долгота, высота метеостанции:
Тюмень 57.1°ш. 65.4°д. 102 м над ур. моря [Российская Федерация]

Дополнительная информация

В oтличие oт бoльшинства пoгoдных сайтoв мы публикуем пoдрoбную метеoинфoрмацию в детальнoм прoфессиoнальнoм фoрмате.

Характеристики температуры и влажнoсти вoздуха измеряются на высoте 2 м в тени вдали oт зданий и деревьев.
Скoрoсть ветра измеряется на высoте 10 м (на урoвне рoста челoвека скoрoсть ветра ниже в 1.5-2 раза). Если метеoстанция нахoдится в гoрoде или в лесу, тo скoрoсть ветра занижена на 2-4 м/с пo сравнению с oткрытым местoм. Скoрoсть ветра над акватoриями крупных рек и oзёр, а также на вершинах хoлмoв на 2-5 м/с выше, чем в oбычных услoвиях.
Атмoсфернoе давление в разных тoчках местнoсти мoжет значительнo oтличаться oт давления на метеoстанции, в зависимoсти oт услoвий рельефа (при пoдъёме на 10 м давление пoнижается примернo на 1 мм рт.ст.).